GW5801 Weather Reports


time (UTC)temp
F
wind
direction
speed
knots
gust
knots
rain 1hr
in
rain 24hr
in
rain mn
in
humidity
%
barometer
mb
20260504223136 77 142 0.9 2.6 0.00 0.00 0.00 66 1012.3
20260504222634 77 213 0.9 2.6 0.00 0.00 0.00 65 1012.4
20260504222131 77 229 1.7 5.2 0.00 0.00 0.00 65 1012.6
20260504221628 77 158 0.9 6.1 0.00 0.00 0.00 65 1012.6
20260504221125 77 252 1.7 6.1 0.00 0.00 0.00 64 1012.6
20260504220621 78 244 1.7 3.5 0.00 0.00 0.00 64 1012.7
20260504220119 78 245 0.0 3.5 0.00 0.00 0.00 64 1012.6
20260504215615 78 187 0.9 1.7 0.00 0.00 0.00 64 1012.5
20260504215113 78 221 1.7 3.5 0.00 0.00 0.00 63 1012.7
20260504214608 78 81 0.9 2.6 0.00 0.00 0.00 64 1012.8
20260504214105 78 218 1.7 6.1 0.00 0.00 0.00 63 1012.8
20260504213601 79 216 1.7 2.6 0.00 0.00 0.00 63 1012.9
20260504213058 79 275 0.9 3.5 0.00 0.00 0.00 62 1012.8
20260504212554 79 199 1.7 3.5 0.00 0.00 0.00 62 1012.9
20260504212052 80 245 0.9 2.6 0.00 0.00 0.00 62 1012.9
20260504211548 80 213 1.7 2.6 0.00 0.00 0.00 61 1012.8
20260504211045 80 125 1.7 5.2 0.00 0.00 0.00 60 1013.1
20260504210542 81 167 2.6 3.5 0.00 0.00 0.00 58 1013.1
20260504210039 82 169 1.7 5.2 0.00 0.00 0.00 57 1013.1
20260504205537 81 301 0.9 2.6 0.00 0.00 0.00 58 1013.1
20260504205035 81 108 0.9 1.7 0.00 0.00 0.00 58 1013.1
20260504204532 82 128 0.9 6.1 0.00 0.00 0.00 57 1013.3
20260504204031 82 241 0.9 2.6 0.00 0.00 0.00 57 1013.4
20260504203529 81 254 0.9 3.5 0.00 0.00 0.00 57 1013.4
20260504203026 81 257 1.7 2.6 0.00 0.00 0.00 57 1013.3
20260504202521 82 195 0.9 1.7 0.00 0.00 0.00 57 1013.7
20260504202019 82 76 0.9 2.6 0.00 0.00 0.00 57 1013.5
20260504201516 82 234 1.7 2.6 0.00 0.00 0.00 56 1013.8
20260504201014 81 190 2.6 5.2 0.00 0.00 0.00 57 1013.6
20260504200510 81 300 0.0 5.2 0.00 0.00 0.00 58 1013.8
20260504200007 81 144 0.0 2.6 0.00 0.00 0.00 57 1013.9
20260504195503 81 288 0.9 5.2 0.00 0.00 0.00 57 1014.0
20260504194959 81 319 0.0 1.7 0.00 0.00 0.00 57 1014.1
20260504194455 82 130 2.6 6.1 0.00 0.00 0.00 56 1013.8
20260504193951 82 267 0.9 2.6 0.00 0.00 0.00 56 1014.1
20260504193449 82 276 0.9 0.9 0.00 0.00 0.00 56 1014.2
20260504192947 81 264 0.9 2.6 0.00 0.00 0.00 58 1014.4
20260504192444 82 272 2.6 5.2 0.00 0.00 0.00 55 1014.5
20260504191943 82 282 2.6 7.0 0.00 0.00 0.00 54 1014.3
20260504191441 83 216 2.6 6.1 0.00 0.00 0.00 53 1014.4
20260504190935 83 194 0.9 1.7 0.00 0.00 0.00 56 1014.5
20260504190431 83 312 0.9 2.6 0.00 0.00 0.00 52 1014.4
20260504185928 82 125 1.7 3.5 0.00 0.00 0.00 56 1014.3
20260504185426 82 250 0.9 5.2 0.00 0.00 0.00 55 1014.6
20260504184921 82 200 0.9 2.6 0.00 0.00 0.00 56 1014.6
20260504184417 82 58 0.9 6.1 0.00 0.00 0.00 55 1014.5
20260504183913 82 252 1.7 2.6 0.00 0.00 0.00 55 1014.3
20260504183411 82 189 3.5 5.2 0.00 0.00 0.00 54 1014.5
20260504182909 82 154 1.7 3.5 0.00 0.00 0.00 53 1014.6
20260504182405 82 274 0.0 6.1 0.00 0.00 0.00 54 1014.8
20260504181902 81 152 0.9 5.2 0.00 0.00 0.00 55 1014.9
20260504181359 81 210 2.6 6.1 0.00 0.00 0.00 55 1015.1
20260504180858 81 290 1.7 1.7 0.00 0.00 0.00 57 1015.0
20260504180356 81 225 2.6 3.5 0.00 0.00 0.00 57 1015.1
20260504175854 81 127 1.7 3.5 0.00 0.00 0.00 57 1015.1
20260504175350 81 126 2.6 5.2 0.00 0.00 0.00 55 1015.2
20260504174849 81 182 1.7 7.0 0.00 0.00 0.00 56 1015.2
20260504174346 80 18 0.0 5.2 0.00 0.00 0.00 57 1015.2
20260504173843 81 144 1.7 2.6 0.00 0.00 0.00 54 1015.4
20260504173340 80 234 0.9 2.6 0.00 0.00 0.00 53 1015.6
20260504172837 80 148 3.5 5.2 0.00 0.00 0.00 55 1015.6
20260504172333 81 241 0.9 5.2 0.00 0.00 0.00 55 1015.4
20260504171829 81 176 4.3 7.8 0.00 0.00 0.00 54 1015.7
20260504171326 80 234 0.9 5.2 0.00 0.00 0.00 58 1015.6
20260504170824 80 213 1.7 6.1 0.00 0.00 0.00 57 1015.7
20260504170320 80 145 2.6 3.5 0.00 0.00 0.00 57 1015.8
20260504160238 78 240 2.6 3.5 0.00 0.00 0.00 58 1016.5
20260504150704 76 84 1.7 5.2 0.00 0.00 0.00 64 1016.5
20260504150201 75 245 1.7 2.6 0.00 0.00 0.00 65 1016.6
20260504141130 72 161 2.6 3.5 0.00 0.00 0.00 69 1016.1
20260504140626 71 295 0.9 2.6 0.00 0.00 0.00 68 1016.2
20260504140122 71 245 0.9 1.7 0.00 0.00 0.00 69 1016.3
20260504130550 62 200 0.0 0.0 0.00 0.00 0.00 85 1016.4
20260504110438 58 200 0.0 0.0 0.00 0.00 0.00 90 1016.0
20260504100401 59 200 0.0 0.0 0.00 0.00 0.00 87 1016.0
20260504081754 61 200 0.0 0.0 0.00 0.00 0.00 77 1017.0
20260504081250 61 200 0.0 0.0 0.00 0.00 0.00 78 1016.9
20260504080747 61 200 0.0 0.0 0.00 0.00 0.00 77 1017.3
20260504080243 61 200 0.0 0.0 0.00 0.00 0.00 76 1017.3
20260504070211 60 200 0.0 0.0 0.00 0.00 0.00 79 1018.0
20260504060131 60 200 0.0 0.0 0.00 0.00 0.00 80 1018.4
20260504050600 60 200 0.0 0.0 0.00 0.00 0.00 78 1018.9
20260504045553 61 200 0.0 0.0 0.00 0.00 0.00 77 1019.0
20260504045049 61 200 0.0 0.0 0.00 0.00 0.00 76 1019.0
20260504044547 61 200 0.0 0.0 0.00 0.00 0.00 75 1019.0
20260504044043 61 200 0.0 0.0 0.00 0.00 0.00 74 1019.2
20260504043540 62 200 0.0 0.0 0.00 0.00 0.00 74 1019.2
20260504043038 62 200 0.0 0.0 0.00 0.00 0.00 73 1019.0
20260504042534 62 200 0.0 0.0 0.00 0.00 0.00 72 1019.0
20260504042032 62 200 0.0 0.0 0.00 0.00 0.00 71 1019.0
20260504041527 62 200 0.0 0.0 0.00 0.00 0.00 70 1019.0
20260504041023 63 200 0.0 0.0 0.00 0.00 0.00 70 1019.0
20260504040521 63 200 0.0 0.0 0.00 0.00 0.00 69 1019.0
20260504040018 64 200 0.0 0.0 0.00 0.00 0.00 69 1019.1
20260504035515 64 200 0.0 0.0 0.00 0.00 0.00 68 1018.8
20260504035011 64 200 0.0 0.0 0.00 0.00 0.00 67 1019.0
20260504034509 64 200 0.0 0.0 0.00 0.00 0.00 66 1019.1
20260504034006 65 200 0.0 0.0 0.00 0.00 0.00 66 1019.0
20260504033503 65 200 0.0 0.0 0.00 0.00 0.00 65 1019.1
20260504033000 65 202 0.0 0.0 0.00 0.00 0.00 65 1019.0
20260504032457 65 202 0.0 0.0 0.00 0.00 0.00 65 1019.2
20260504031954 65 202 0.0 0.0 0.00 0.00 0.00 64 1018.8
20260504031451 65 202 0.0 0.0 0.00 0.00 0.00 63 1018.7
20260504030947 66 202 0.0 0.0 0.00 0.00 0.00 62 1018.9
20260504030445 66 202 0.0 0.0 0.00 0.00 0.00 63 1018.8
20260504025940 67 202 0.0 0.0 0.00 0.00 0.00 61 1018.8
20260504025437 67 202 0.0 0.0 0.00 0.00 0.00 60 1019.0
20260504024935 68 202 0.0 0.0 0.00 0.00 0.00 59 1018.9
20260504024431 68 202 0.0 0.0 0.00 0.00 0.00 58 1019.1
20260504023928 68 208 0.0 0.9 0.00 0.00 0.00 57 1019.2
20260504023425 68 213 0.0 0.9 0.00 0.00 0.00 57 1019.0
20260504022920 68 185 0.0 0.9 0.00 0.00 0.00 56 1018.8
20260504022417 69 194 0.0 1.7 0.00 0.00 0.00 56 1018.9
20260504021914 69 189 0.0 0.9 0.00 0.00 0.00 56 1018.8
20260504021411 69 200 0.0 1.7 0.00 0.00 0.00 55 1018.9
20260504020909 69 249 0.0 0.0 0.00 0.00 0.00 56 1018.8
20260504020405 69 239 0.0 0.9 0.00 0.00 0.00 55 1018.7
20260504015901 69 204 0.0 0.9 0.00 0.00 0.00 55 1018.9
20260504015357 70 220 0.0 0.0 0.00 0.00 0.00 54 1018.9
20260504014853 70 193 0.0 1.7 0.00 0.00 0.00 54 1018.8
20260504014349 70 201 0.9 0.9 0.00 0.00 0.00 53 1018.8
20260504013847 70 194 0.9 1.7 0.00 0.00 0.00 53 1018.7
20260504013345 70 176 0.0 1.7 0.00 0.00 0.00 53 1018.8
20260504012841 71 199 0.9 2.6 0.00 0.00 0.00 52 1018.7
20260504012339 71 231 0.0 2.6 0.00 0.00 0.00 51 1018.7
20260504011836 71 179 0.9 1.7 0.00 0.00 0.00 51 1018.8
20260504011333 71 216 0.9 1.7 0.00 0.00 0.00 50 1018.5
20260504010829 71 184 0.0 0.9 0.00 0.00 0.00 50 1018.6
20260504010324 71 209 0.9 0.9 0.00 0.00 0.00 50 1018.7
20260504005821 72 207 0.0 0.9 0.00 0.00 0.00 50 1018.8
20260504005318 72 189 1.7 2.6 0.00 0.00 0.00 49 1018.8
20260504004816 72 214 0.0 1.7 0.00 0.00 0.00 49 1018.6
20260504004313 72 238 0.0 1.7 0.00 0.00 0.00 49 1018.7
20260504003809 72 244 0.0 1.7 0.00 0.00 0.00 48 1018.6
20260504003307 73 194 0.0 0.0 0.00 0.00 0.00 48 1018.7
20260504002803 73 216 0.0 0.9 0.00 0.00 0.00 47 1018.6
20260504002300 74 199 1.7 2.6 0.00 0.00 0.00 45 1018.4
20260504001758 74 204 0.0 0.9 0.00 0.00 0.00 46 1018.7
20260504001255 74 206 1.7 2.6 0.00 0.00 0.00 44 1018.6
20260504000751 75 273 0.9 1.7 0.00 0.00 0.00 44 1018.7
20260504000248 75 161 0.9 1.7 0.00 0.00 0.00 44 1018.6
20260503235746 75 217 0.0 2.6 0.00 0.00 0.00 44 1018.6
20260503235243 75 61 0.9 1.7 0.00 0.00 0.00 44 1018.7
20260503234741 75 292 0.9 2.6 0.00 0.00 0.00 43 1018.8
20260503234239 75 252 0.9 2.6 0.00 0.00 0.00 43 1018.8
20260503233736 76 192 1.7 1.7 0.00 0.00 0.00 43 1018.8
20260503233231 76 192 0.0 1.7 0.00 0.00 0.00 43 1019.0
20260503232728 76 250 1.7 5.2 0.00 0.00 0.00 42 1018.9
20260503232226 76 215 0.9 1.7 0.00 0.00 0.00 42 1019.0
20260503231724 76 138 1.7 3.5 0.00 0.00 0.00 41 1018.9
20260503231220 77 205 0.9 2.6 0.00 0.00 0.00 41 1019.0
20260503230716 77 29 0.0 0.9 0.00 0.00 0.00 42 1019.1
20260503230214 77 152 1.7 2.6 0.00 0.00 0.00 42 1019.1
20260503225711 77 192 0.9 2.6 0.00 0.00 0.00 41 1019.2
20260503225206 77 271 0.0 0.9 0.00 0.00 0.00 43 1019.0
20260503224704 77 83 0.9 1.7 0.00 0.00 0.00 42 1019.0
20260503224201 77 188 0.9 1.7 0.00 0.00 0.00 41 1019.3
20260503223659 77 77 0.9 1.7 0.00 0.00 0.00 40 1019.2